Regional Weather Roundup
Issued by NWS

Home | Current Version | Previous Version | Graphics & Text | Print | Product List | Glossary On
Versions: 1 2 3 4 5 6 7 8 9 10 11 12 13 14 15 16 17 18 19 20 21 22 23 24 25 26 27 28 29 30 31 32 33 34 35 36 37 38 39 40 41 42 43 44 45 46 47 48 49 50
000
ASUS44 KMEG 291400
RWRTN
TENNESSEE HOURLY STATE WEATHER ROUNDUP
NATIONAL WEATHER SERVICE MEMPHIS TN
900 AM CDT THU SEP 29 2016

TNZ002-004-019-021-049-052-054-088>092-291500-
WEST TENNESSEE

CITY           SKY/WX    TMP DP  RH WIND       PRES   REMARKS
MEMPHIS INTL   SUNNY     61  50  67 N10       30.16R
NWS MEMPHIS      N/A     57 N/A N/A MISG        N/A
JACKSON        SUNNY    N/A N/A N/A NW6       30.14R
DYERSBURG      MOSUNNY  N/A N/A N/A MISG        N/A
UNION CITY     MOSUNNY   55  52  88 N9        30.11S
PARIS          CLOUDY    52  48  87 VRB6      30.11S
LEXINGTON      SUNNY     57  50  77 NW9       30.11R
$$

TNZ008-025-027-028-033-062-065-066-291500-
NORTH MIDDLE TENNESSEE

CITY           SKY/WX    TMP DP  RH WIND       PRES   REMARKS
NASHVILLE      PTSUNNY   56  49  77 NW8       30.08S
CLARKSVILLE    PTSUNNY   54  50  86 W12       30.08R
SMYRNA         PTSUNNY   55  50  83 NW8       30.09R
COOKEVILLE     CLOUDY    54  50  87 CALM      30.06R
CROSSVILLE     SUNNY     56  49  77 VRB5      30.05R
$$

TNZ061-075-076-078-094-096-097-291500-
SOUTH MIDDLE TENNESSEE

CITY           SKY/WX    TMP DP  RH WIND       PRES   REMARKS
SHELBYVILLE    SUNNY     55  52  88 NW7       30.09R
$$

TNZ017-018-042-046-047-291500-
NORTHEAST TENNESSEE

CITY           SKY/WX    TMP DP  RH WIND       PRES   REMARKS
TRI CITIES     CLOUDY    60  53  77 CALM      29.99S
$$

TNZ012-013-036-069-073-074-291500-
CENTRAL EAST TENNESSEE

CITY           SKY/WX    TMP DP  RH WIND       PRES   REMARKS
KNOXVILLE      PTSUNNY   62  54  74 N3        30.00R
OAK RIDGE      PTSUNNY   62  52  69 CALM      30.03R
GATLINBURG     CLOUDY    57  54  88 W3        30.01R
$$

TNZ083-085-099-291500-
SOUTHEAST TENNESSEE

CITY           SKY/WX    TMP DP  RH WIND       PRES   REMARKS
CHATTANOOGA    MOSUNNY   63  50  62 NE5       30.04R
$$

SKY/WX REPORTED AS FAIR MEANS FEW OR NO CLOUDS BELOW
12 THOUSAND FEET.




USA.gov is the U.S. government's official web portal to all federal, state and local government web resources and services.